Terug naar catalogus

STARLINK-32654

ActiefCommunicatieVLEO
NORAD 62322·PAYLOAD·🇺🇸 United States

Gelanceerd Dec 13, 2024 vanaf Vandenberg Space Force Base

Loading…

Volgende Passages (komende 24 uur)

TLE

VersSource: CelesTrak SupGP

Epoch: Sep 15, 2026, 03:41 UTC

1 62322C 24239X   26258.15395833  .00037558  00000+0  11095-2 0  2588
2 62322  53.1603  30.3711 0001132  81.5973 188.4293 15.34376555    10

Volg STARLINK-32654 in realtime met AllMySat

Download on the App Store